Location: Kaiser
(34.0939°N, 117.4889°W)
Time: 21:04:37
(UTC+00:00)

Gblst 52 Del rocket - Pass Details

Date: 29 October 2020
Orbit: 805 x 1365 km, 51.5° (Epoch: 25 November)

Event Time Altitude Azimuth Distance (km) Brightness Sun altitude
Exits shadow 12:24:22 31° 220° (SW) 1,410 5.0 -21.9°
Maximum altitude 12:27:10 83° 135° (SE) 850 4.2 -21.3°
Drops below altitude 10° 12:33:09 10° 49° (NE) 2,589 7.3 -20.0°
Sets 12:35:51 0° 48° (NE) 3,609 8.2 -19.5°
